Regional Weather Roundup
Issued by NWS State College, PA

Home | Current Version | Previous Version | Text Only | Print | Product List | Glossary Off
Versions: 1 2 3 4 5 6 7 8 9 10 11 12 13 14 15 16 17 18 19 20 21 22 23 24 25 26 27 28 29 30 31 32 33 34 35 36 37 38 39 40 41 42 43 44 45 46 47 48 49 50

198
ASUS41 KCTP 241103
RWRCTP

REGIONAL WEATHER ROUNDUP
NATIONAL WEATHER SERVICE STATE COLLEGE PA
600 AM EST FRI FEB 24 2017

Note: "fair" indicates few or no clouds below 12,000 feet with no
significant weather and/or obstructions to visibility.

* = STATION THAT DOES NOT REPORT PRECIPITATION /E.G. RAIN...SNOW...ETC/
    THUNDER OR FOG.

PAZ002>004-007>009-013>016-020>023-029>032-241200-
WESTERN PENNSYLVANIA

CITY           SKY/WX    TMP DP  RH WIND       PRES   REMARKS
ERIE           CLOUDY    41  39  93 E7        29.75F FOG
MEADVILLE      CLOUDY    56  51  84 S5        29.76S
FRANKLIN*      MOCLDY    54  48  82 S8        29.80S
NEW CASTLE     PTSUNNY   55  53  93 VRB3      29.78S
BEAVER COUNTY  NOT AVBL
BUTLER*        CLEAR     55  50  82 S6        29.81R
PITTSBURGH INT PTCLDY    55  52  89 S5        29.79S
PITTSBURGH     CLEAR     57  49  74 S8        29.80S
INDIANA*       MOCLDY    55  52  88 SE3       29.85R
LATROBE        CLEAR     57  50  77 S5        29.83R
WASHINGTON CO* CLEAR     55  48  76 S6        29.83R
$$

PAZ004>006-010>012-017>019-024>028-033>037-041-042-045-046-049>053-241200-
CENTRAL PENNSYLVANIA

CITY           SKY/WX    TMP DP  RH WIND       PRES   REMARKS
BRADFORD       CLOUDY    53  52  96 SE5       29.81S
DUBOIS         PTCLDY    52  48  86 CALM      29.81S
CLEARFIELD       N/A    N/A N/A N/A MISG      29.84R
JOHNSTOWN      MOCLDY    54  48  80 S5        29.85R
ALTOONA        CLOUDY    53  50  89 CALM      29.85S
STATE COLLEGE  CLEAR     50  48  93 CALM      29.84S
WILLIAMSPORT   PTCLDY    46  44  93 CALM      29.84S FOG
SELINSGROVE    PTCLDY    48  48 100 CALM      29.85F
FT INDIANTOWN  PTCLDY    47  47 100 NE3       29.88F FOG
CAPITAL CITY   PTCLDY    53  47  79 CALM      29.87S
HARRISBURG     PTCLDY    53  50  89 E3        29.87S
YORK           CLEAR     58  51  78 SW5       29.87F
$$

PAZ038>040-043-044-047-048-054-055-060>062-067>071-241200-
EASTERN PENNSYLVANIA

CITY           SKY/WX    TMP DP  RH WIND       PRES   REMARKS
SCRANTON       CLOUDY    56  52  86 NW3       29.87S
MOUNT POCONO   CLOUDY    51  50  96 SW5       29.90S
ALLENTOWN      CLOUDY    50  45  83 CALM      29.90S
QUAKERTOWN*    PTSUNNY   52  50  93 CALM      29.92R
READING        PTCLDY    55  51  86 CALM      29.89S
LANCASTER      PTCLDY    49  49 100 E5        29.89S
COATESVILLE    MOSUNNY   54  52  94 CALM      29.92S
POTTSTOWN      PTCLDY    52  50  93 CALM      29.92S
BLUE BELL      CLOUDY    52  50  93 CALM      29.92R
DOYLESTOWN     MOCLDY    54  52  93 S8        29.91S
WILLOW GROVE   NOT AVBL
NORTH PHILA    MOCLDY    51  49  92 S5        29.94R
PHILADELPHIA   MOCLDY    54  50  86 S6        29.94R
$$




USA.gov is the U.S. government's official web portal to all federal, state and local government web resources and services.